Location: Unspecified
(41.5516°N, 88.1098°W)
Time: 12:52:07
(UTC-05:00)

HST - Visible Passes

Search period start: 31 October 2014 00:00
Search period end: 09 November 2014 23:00
Orbit: 546 x 550 km, 28.5° (Epoch: 30 October)

Date Brightness Start Highest point End Pass type
(mag) Time Alt. Az. Time Alt. Az. Time Alt. Az.
31 Oct 3.2 19:04:42 10° SSW 19:06:43 13° S 19:08:45 10° SSE visible
01 Nov 3.3 18:57:23 10° SSW 18:59:14 13° S 19:01:05 10° SSE visible
02 Nov 3.4 17:50:14 10° SSW 17:51:44 12° S 17:53:13 10° SSE visible
03 Nov 3.6 17:43:27 10° SSW 17:44:12 10° SSW 17:44:57 10° S visible
